ラッド(G. J. Garradd)によっても,彗星が捕らえられた.このとき,彗星の核光度

は15.9等であった.



   2006 UT             α     (2000)     δ             Mag.

   Nov. 20.32650   03h 32m 32s.53   +28゚ 02' 22".0      20.3



    次の軌道は,2006年11月20日から2007年5月7日までに行なわれた74個の観測から

決定したもの.平均残差は 0".61.なお,この彗星は,5月21日頃に地球に接近したあ

と,北上し,北半球でも観測できるようになる.光度は,定かではないが,予報光度よ

りもっと明るいかも知れない.ただし,微小の彗星のため,接近後は,急速に暗くなる

だろう.



             Epoch = 2007 Apr. 10.0 TT

   T = 2007 Apr. 28.39939 TT    ω = 292.69199                 (1/a)org.= +0.00

2259

   e =   0.9989713              Ω = 226.79050    (2000.0)     (1/a)fut.= +0.00

1801

   q =   0.5912395 AU           i = 152.70448                            ( Q =

 7 )



2007/        α  (2000) δ      △      r    Daily motion  Elong. Phase    m1   天文薄明終了時

 21h JST    h  m       。  ,        AU      AU      ,     。     。      。      等     h。    A 。 

May  20   04 30.76  +07 27.4    0.263   0.763   558.8/ 70    16.4  158.1   12.4   -19.7  115.1

     21   05 06.38  +10 31.7    0.257   0.776   567.7/ 71    20.5  152.8   12.5   -12.0  112.4

     22   05 43.23  +13 24.6    0.259   0.790   545.6/ 73    26.7  144.8   12.5    -4.1  109.7

     23   06 19.42  +15 52.5    0.267   0.804   499.2/ 75    33.6  135.9   12.7    +3.4  107.1

     24   06 53.24  +17 48.6    0.282   0.818   439.9/ 78    40.1  127.1   12.9   +10.1  104.7

     25   07 23.60  +19 13.4    0.301   0.832   378.4/ 80    46.0  118.9   13.1   +15.9  102.5

     26   07 50.08  +20 11.8    0.326   0.846   321.4/ 82    50.9  111.7   13.3   +20.7  100.6

     27   08 12.79  +20 50.1    0.353   0.861   271.7/ 84    55.0  105.3   13.6   +24.6   98.8

     28   08 32.12  +21 14.1    0.383   0.876   229.9/ 86    58.4   99.7   13.8   +27.7   97.3

     29   08 48.54  +21 28.3    0.415   0.891   195.4/ 87    61.1   94.8   14.1   +30.1   96.1

     30   09 02.54  +21 35.9    0.449   0.906   167.1/ 88    63.3   90.4   14.3   +32.0   95.0

     31   09 14.52  +21 39.1    0.483   0.921   144.0/ 89    65.0   86.6   14.6   +33.5   94.1

June  1   09 24.85  +21 39.4    0.519   0.936   125.0/ 90    66.4   83.1   14.8   +34.6   93.3

      2   09 33.81  +21 37.9    0.555   0.951   109.3/ 91    67.4   80.0   15.0   +35.4   92.8

      3   09 41.64  +21 35.2    0.592   0.967    96.3/ 92    68.3   77.1   15.2   +36.0   92.3

      4   09 48.54  +21 31.7    0.628   0.982    85.4/ 92    68.9   74.5   15.4   +36.4   91.9

      5   09 54.66  +21 27.7    0.666   0.997    76.3/ 93    69.3   72.1   15.6   +36.7   91.7

      6   10 00.11  +21 23.5    0.703   1.013    68.6/ 93    69.6   69.8   15.8   +36.8   91.5

      7   10 05.01  +21 19.2    0.740   1.029    62.0/ 94    69.8   67.8   16.0   +36.8   91.4

      8   10 09.44  +21 14.8    0.778   1.044    56.4/ 94    69.8   65.8   16.1   +36.9   91.2

      9   10 13.46  +21 10.3    0.815   1.060    51.6/ 95    69.8   64.0   16.3   +36.7   91.2

     10   10 17.13  +21 06.0    0.853   1.076    47.4/ 95    69.7   62.3   16.5   +36.5   91.3

     11   10 20.50  +21 01.7    0.890   1.091    43.8/ 95    69.5   60.6   16.6   +36.2   91.4

     12   10 23.61  +20 57.4    0.928   1.107    40.6/ 96    69.3   59.1   16.8   +35.8   91.5

     13   10 26.49  +20 53.2    0.965   1.123    37.8/ 96    69.0   57.6   16.9   +35.5   91.7

     14   10 29.17  +20 49.1    1.002   1.139    35.4/ 96    68.7   56.2   17.1   +35.1   91.9

     15   10 31.68  +20 45.1    1.040   1.155    33.2/ 97    68.3   54.9   17.2   +34.6   92.1

     16   10 34.03  +20 41.1    1.077   1.170    31.3/ 97    67.9   53.6   17.3   +34.2   92.3

     17   10 36.24  +20 37.2    1.113   1.186    29.6/ 97    67.5   52.3   17.5   +33.7   92.5

     18   10 38.33  +20 33.4    1.150   1.202    28.0/ 98    67.1   51.1   17.6   +33.2   92.8

     19   10 40.31  +20 29.6    1.187   1.218    26.7/ 98    66.6   50.0   17.7   +32.7   93.0

     20   10 42.19  +20 25.9    1.223   1.234    25.5/ 98    66.1   48.9   17.8   +32.2   93.3

     21   10 43.98  +20 22.2    1.259   1.249    24.4/ 98    65.6   47.8   18.0   +31.7   93.6

     22   10 45.69  +20 18.6    1.295   1.265    23.4/ 99    65.1   46.8   18.1   +31.1   93.9

     23   10 47.33  +20 15.0    1.331   1.281    22.5/ 99    64.5   45.8   18.2   +30.6   94.1

     24   10 48.91  +20 11.5    1.367   1.297    21.6/ 99    64.0   44.8   18.3   +30.0   94.4

     25   10 50.42  +20 08.0    1.402   1.312    20.9/ 99    63.4   43.8   18.4   +29.5   94.7

     26   10 51.89  +20 04.5    1.437   1.328    20.2/100    62.8   42.9   18.5   +28.9   95.0

     27   10 53.30  +20 01.1    1.472   1.344    19.6/100    62.2   42.0   18.6   +28.4   95.3

     28   10 54.67  +19 57.7    1.507   1.359    19.0/100    61.6   41.1   18.7   +27.8   95.6

     29   10 56.00  +19 54.3    1.542   1.375    18.5/100    61.0   40.3   18.8   +27.3   95.9

     30   10 57.29  +19 50.9    1.576   1.391    18.1/101    60.4   39.5   18.9   +26.8   96.2

July  1   10 58.55  +19 47.6    1.610   1.406    17.6/101    59.8   38.6   19.0   +26.2   96.5

      2   10 59.78  +19 44.3    1.644   1.422    17.2/101    59.1   37.9   19.1   +25.7   96.7

      3   11 00.97  +19 41.0    1.678   1.437    16.9/101    58.5   37.1   19.2   +25.1   97.0

      4   11 02.15  +19 37.7    1.712   1.453    16.5/101    57.8   36.3   19.3   +24.6   97.3

      5   11 03.29  +19 34.4    1.745   1.469    16.2/102    57.2   35.6   19.4   +24.1   97.6

                    m1 = 16.5 + 5 log △ + 10.0 log r





軌道と残差:



    C/2006 WD4 (Lemmon)

Epoch 2007 Apr. 10.0 TT = JDT 2454200.5  

T 2007 Apr. 28.39939 TT                                 Nakano

q   0.5912395            (2000.0)            P               Q

z  +0.0017400      Peri.  292.69199     +0.33343304     -0.88153680

 +/-0.0000043      Node   226.79050     -0.60469575     -0.47196777

e   0.9989713      Incl.  152.70448     -0.72330177     -0.01180224

From 74 observations 2006 Nov. 20-2007 May  7, mean residual 0".61.

   (1/a)org.= +0.002259, (1/a)fut.= +0.001801 (+/-0.000004), Q= 7.

Residuals in seconds of arc 

2006/                     061122 734  1.5+  0.4-    061222 715  0.3+  0.0   

061120 G96  0.0   0.4-    061122 G96  0.0   0.1+    061222 715  0.5+  0.5+  

061120 G96  0.4-  0.4+    061122 G96  0.2-  0.1+    061222 G96  0.1-  0.2-  

061120 G96  0.3-  0.2+    061122 G96  0.4-  0.1+    061222 G96  0.9-  1.0-  

061120 G96  0.3+  0.0     061201 G96  0.7-  0.2-    061222 G96  0.3-  0.0   

061120 J95  0.1+  0.0     061201 G96  0.3+  1.0-    061222 G96  0.1-  0.4-  

061120 J95  0.6-  0.3-    061201 G96  1.1+  0.2+    061223 204  0.1+  0.0   

061120 J95  0.1-  0.1+    061212 G96  0.2+  0.1-    061225 G96  0.3+  0.2-  

061121 854  0.9-  0.3+    061212 G96  0.0   0.2-    061225 G96  0.0   0.1+  

061121 854  0.7+  1.5+    061213 734  0.3+  0.4+    061225 G96  0.4-  0.2-  

061121 G96  0.1+  0.0     061213 734  1.0+  0.2+    061225 G96  0.8+  0.4-  

061121 G96  0.3+  0.2+    061213 734  1.2+  0.1+    061225 568  0.3-  0.1+  

061121 G96  0.0   0.1-    061213 734  1.2+  0.4+    061225 568  0.3-  0.2+  

061121 G96  0.1-  0.1+    061214 G96  0.2+  0.9-    061225 204  0.6-  0.4+  

061121 734  0.4-  0.8+    061214 G96  0.1+  0.4-    2007/                   

061121 734  0.8+  0.2-    061214 G96  0.3+  0.6-    070430 E26  1.7-  0.3+  

061121 734  0.6+  1.2-    061214 G96  0.8+  0.1+    070430 E26  0.5-  1.1-  

061121 711  0.3-  0.3+    061214 G96  0.1-  0.2-    070502 E26  0.2-  1.1+  

061121 711  0.0   0.2-    061214 G96  0.2+  0.2-    070502 E26  0.0   1.7+  

061121 711  0.3-  0.5+    061214 G96  0.7-  0.4-    070503 E26  1.9+  0.4-  

061122 734  0.2+  0.2-    061214 G96  0.1+  0.2-    070503 E26  0.9+  0.0   

061122 734  1.1+  1.4-    061221 G96  0.2+  0.2-    070507 E12  0.0   0.8-  

061122 291  1.5-  0.4-    061221 G96  0.0   0.2+    070507 E12  0.1-  0.7-  

061122 291  0.7-  0.3+    061221 G96  0.6+  0.6+    070507 E12  0.4+  0.3-  

061122 734  0.2+  0.0     061221 G96  0.5+  0.1+                            

061122 291  0.5-  0.1-    061222 715  0.0   0.4+                            

 

日本スペースガード協会            (c) Copyright JSGA 2007           中野 主一

         **** Don't distribute anyone except personal use only ****

                (C) Copyright 2007 OAA/ComputingSection

write mail from CFAD0::NAKANO on 2007-05-22 06:03:44(JST).



戻ります。